Location: downtown San Diego
(32.7310°N, 117.1990°W)
Time: 03:27:24
(UTC-07:00)

H-2A R/B - Pass Details

Date: 14 June 2018
Orbit: 735 x 836 km, 98.3° (Epoch: 20 June)

Event Time Altitude Azimuth Distance (km) Brightness Sun altitude
Exits shadow 22:19:20 33° 208° (SSW) 1,290 2.9 -23.5°
Maximum altitude 22:21:14 49° 260° (W) 1,012 2.7 -23.8°
Drops below altitude 10° 22:26:20 10° 335° (NNW) 2,386 5.6 -24.4°
Sets 22:28:47 0° 341° (NNW) 3,335 6.5 -24.7°
